Preview of NWS' New Version of Forecast
This preview is not operational and should not be used for support decisions.

Regional Weather Roundup (RWR)

Issued by National Weather Service (NWS)

                            
000
ASUS46 KSEW 241610
RWRWA 

WASHINGTON REGIONAL WEATHER ROUNDUP
NATIONAL WEATHER SERVICE SEATTLE WA
900 AM PDT MON JUN 24 2019

NOTE:"FAIR" INDICATES FEW OR NO CLOUDS BELOW 12,000 FEET WITH NO 
SIGNIFICANT WEATHER AND/OR OBSTRUCTIONS TO VISIBILITY.

WAZ507-509-555>559-241700-
SEATTLE, TACOMA, EVERETT, AND VICINITY
  
CITY           SKY/WX    TMP DP  RH WIND       PRES   REMARKS
EVERETT        CLOUDY    53  50  89 CALM      30.09F                  
BOEING FIELD   CLOUDY    56  47  71 CALM      30.09S                  
RENTON         CLOUDY    56  48  74 CALM      30.09S                  
SEATAC AIRPORT CLOUDY    56  48  74 VRB5      30.09S                  
JBLM-MCCHORD   CLOUDY    56  51  86 SW6       30.09S                  
PUYALLUP       CLOUDY    57  48  72 CALM      30.09S                  
BREMERTON      CLOUDY    55  48  77 SE5       30.09S                  
JBLM-FT LEWIS  CLOUDY    57  51  81 SE5       30.09S                  
TACOMA NARROWS CLOUDY    54  48  80 S5        30.09S                  
$$
 
WAZ001-503-506-510-514-515-241700-
NORTH INTERIOR
  
CITY           SKY/WX    TMP DP  RH WIND       PRES   REMARKS
BELLINGHAM     CLOUDY    57  48  72 S8        30.06S                  
FRIDAY HARBOR  CLOUDY    59  49  69 VRB3      30.07S                  
EASTSOUND      CLOUDY    57  50  77 S3        30.05S                  
PORT ANGELES   SUNNY     56  48  74 NW8       30.08F                  
EDIZ HOOK      PTSUNNY   56  50  81 NW13      30.08S                  
PORT TOWNSEND  CLOUDY    55  50  82 SW5       30.08S                  
NAS WHIDBEY    PTSUNNY   60  49  66 W9        30.11S                  
ARLINGTON      CLOUDY    57  47  69 NW9       30.09F                  
BURLINGTON     PTSUNNY   57  48  72 S12       30.08S                  
$$
 
WAZ020-022-039-040-504-511-512-241700-
SOUTHWEST INTERIOR
  
CITY           SKY/WX    TMP DP  RH WIND       PRES   REMARKS
SHELTON        PTSUNNY   57  47  69 VRB5      30.06F                  
OLYMPIA        CLOUDY    54  48  80 SE5       30.10S                  
CHEHALIS       CLOUDY    57  50  77 CALM      30.10S                  
KELSO          CLOUDY    55  48  77 CALM      30.11S                  
VANCOUVER      CLOUDY    59  46  62 VRB5      30.09F                  
SCAPPOOSE, OR  PTSUNNY   58  49  72 CALM      30.09S                  
PORTLAND, OR   MOSUNNY   59  46  62 CALM      30.10S                  
$$
 
WAZ021-516-517-241700-
WASHINGTON COAST
  
CITY           SKY/WX    TMP DP  RH WIND       PRES   REMARKS
FORKS          CLOUDY    55  49  80 CALM      30.09F                  
HOQUIAM        PTSUNNY   57  49  74 N7        30.09F                  
ASTORIA, OR    CLOUDY    57  49  74 N6        30.09F                  
$$
 
WAZ019-023-024-040-567>569-241700-
CASCADE MOUNTAINS AND COLUMBIA GORGE
  
CITY           SKY/WX    TMP DP  RH WIND       PRES   REMARKS
STAMPEDE PASS  FOG       42  40  92 VRB6      30.04S VSB 1/4          
TROUTDALE, OR  SUNNY     57  46  66 CALM      30.10S                  
HOOD RIVER, OR SUNNY     59  43  55 NW13G21   30.04F                  
THE DALLES, OR SUNNY     62  42  47 NW17G23   30.01F                  
$$

WAZ026-027-041>044-520-521-241700-
EAST SLOPES
  
CITY           SKY/WX    TMP DP  RH WIND       PRES   REMARKS
OMAK           SUNNY     67  39  35 NE12      29.93F                  
WENATCHEE      SUNNY     62  36  37 W14       29.96F                  
ELLENSBURG     SUNNY     60  40  47 NW20G26   29.97F                  
YAKIMA         SUNNY     64  39  39 NW9       29.98F                  
SUNNYSIDE ARPT SUNNY     62  45  53 W7        29.98                   
YAKIMA TC      FAIR      60  36  40 W3        29.96F                  
$$

WAZ028-034-035-241700-
COLUMBIA BASIN
  
CITY           SKY/WX    TMP DP  RH WIND       PRES   REMARKS
EPHRATA        SUNNY     65  34  31 CALM      29.94S                  
MOSES LAKE     SUNNY     66  38  35 SW7       29.95S                  
PASCO          SUNNY     66  41  40 VRB6      29.99S                  
RICHLAND ARPT  SUNNY     67  40  37 S7        29.98                   
HERMISTON, OR  SUNNY     64  44  48 W13       30.00S                  
$$

WAZ036>038-241700-
NORTHEAST WASHINGTON
  
CITY           SKY/WX    TMP DP  RH WIND       PRES   REMARKS
SPOKANE GEIGER PTSUNNY   55  40  56 S13       29.96S                  
SPOKANE FELTS  MOSUNNY   58  42  55 VRB7      29.97S                  
FAIRCHILD AFB  PTSUNNY   56  41  56 SW9       29.96R                  
COEURDALENE,ID MOSUNNY   58  43  57 S10       29.98S                  
DEER PARK      MOSUNNY   54  42  64 S8        29.97S                  
$$

WAZ029>033-241700-
SOUTHEAST WASHINGTON
  
CITY           SKY/WX    TMP DP  RH WIND       PRES   REMARKS
PULLMAN        SUNNY     59  42  53 SW12      30.01R                  
LEWISTON, ID   SUNNY     64  42  44 CALM      29.98S                  
WALLA WALLA    MOSUNNY   62  43  49 SW12      30.00F                  
PENDLETON, OR  SUNNY     62  40  44 W14       30.00S                  
$$